Printer-friendly version

IAU Minor Planet Center

Minor Planet Center

MPEC 2000-C13: 2000 BH19

The following Minor Planet Electronic Circular may be linked-to from your own Web pages, but must not otherwise be redistributed electronically.


Read MPEC 2000-C12 Read MPEC 2000-C14


M.P.E.C. 2000-C13                                Issued 2000 Feb. 3, 17:34 UT

     The Minor Planet Electronic Circulars contain information on unusual
         minor planets and routine data on comets.  They are published
   on behalf of Commission 20 of the International Astronomical Union by the
          Minor Planet Center, Smithsonian Astrophysical Observatory,
                          Cambridge, MA 02138, U.S.A.

             Prepared using the Tamkin Foundation Computer Network

             BMARSDEN@CFA.HARVARD.EDU or GWILLIAMS@CFA.HARVARD.EDU
          URL http://cfa-www.harvard.edu/iau/mpc.html  ISSN 1523-6714

                                   2000 BH19

Observations:
     K00B19H* C2000 01 29.16518 05 41 22.46 +30 11 37.9          18.0        704
     K00B19H  C2000 01 29.18244 05 41 26.97 +30 11 33.9          17.9        704
     K00B19H  C2000 01 29.19901 05 41 31.28 +30 11 29.2          17.8        704
     K00B19H  C2000 01 29.21474 05 41 35.39 +30 11 25.0          17.7        704
     K00B19H  C2000 01 29.23033 05 41 39.38 +30 11 19.6          18.6        704
     K00B19H  C2000 01 30.15704 05 46 06.01 +30 07 04.5          17.4        704
     K00B19H  C2000 01 30.16333 05 46 07.64 +30 07 02.7          17.5        704
     K00B19H  C2000 01 30.17197 05 46 09.99 +30 07 00.3          17.7        704
     K00B19H  C2000 01 30.17822 05 46 11.65 +30 06 58.7          17.5        704
     K00B19H fC2000 01 30.17889 05 46 12.65 +30 06 44.0                      642
     K00B19H  C2000 01 30.18680 05 46 13.90 +30 06 55.8          17.7        704
     K00B19H  C2000 01 30.19304 05 46 15.64 +30 06 53.8          18.2        704
     K00B19H  C2000 01 30.20165 05 46 17.89 +30 06 50.4          18.5        704
     K00B19H  C2000 01 30.20791 05 46 19.56 +30 06 49.4          18.0        704
     K00B19H  C2000 01 30.21650 05 46 21.85 +30 06 46.3          17.9        704
     K00B19H  C2000 01 30.22278 05 46 23.54 +30 06 44.6          17.7        704
     K00B19H  C2000 01 30.23121 05 46 25.79 +30 06 41.2          17.3        704
     K00B19H  C2000 01 30.24602 05 46 29.82 +30 06 36.2          18.6        704
     K00B19H  C2000 01 30.26096 05 46 33.78 +30 06 31.3          17.8        704
     K00B19H  C2000 01 30.27583 05 46 37.78 +30 06 24.8          18.3        704
     K00B19H  C2000 01 30.72260 05 48 51.84 +30 03 46.8                      557
     K00B19H  C2000 01 30.72412 05 48 52.28 +30 03 46.5                      557
     K00B19H IC2000 01 30.72715 05 48 53.09 +30 03 45.7                      557
     K00B19H  C2000 01 30.73304 05 48 54.68 +30 03 46.1                      118
     K00B19H  C2000 01 30.73802 05 48 56.11 +30 03 44.6                      118
     K00B19H  C2000 01 30.73925 05 48 56.46 +30 03 44.3          17.3 R      118
     K00B19H  C2000 01 30.88492 05 49 36.75 +30 03 01.2          17.3        106
     K00B19H  C2000 01 30.92670 05 49 48.29 +30 02 44.8          17.1        106
     K00B19H  C2000 01 31.11178 05 50 45.73 +30 01 53.0          17.1 R      858
     K00B19H  C2000 01 31.11378 05 50 46.24 +30 01 51.9          17.5 R      858
     K00B19H  C2000 01 31.15002 05 50 56.23 +30 01 42.6          17.4        704
     K00B19H  C2000 01 31.16498 05 51 00.31 +30 01 37.5          17.8        704
     K00B19H  C2000 01 31.18008 05 51 04.42 +30 01 32.8          18.8        704
     K00B19H  C2000 01 31.19507 05 51 08.49 +30 01 26.7          17.9        704
     K00B19H  C2000 01 31.21009 05 51 12.60 +30 01 21.3          17.9        704
     K00B19H  C2000 02 01.21149 05 56 12.09 +29 54 46.7          17.1 V      681
     K00B19H  C2000 02 01.21795 05 56 13.94 +29 54 43.7          16.8 V      681
     K00B19H  C2000 02 01.22199 05 56 15.09 +29 54 42.1          17.0 V      681
     K00B19H  C2000 02 01.22521 05 56 16.00 +29 54 40.6          17.2 V      681
     K00B19H IC2000 02 01.72591 05 58 50.00 +29 51 07.1                      557
     K00B19H  C2000 02 01.72697 05 58 50.29 +29 51 07.1                      557
     K00B19H  C2000 02 01.72803 05 58 50.61 +29 51 06.7                      557
     K00B19H  C2000 02 01.74939 05 58 56.85 +29 50 59.6          16.9 R      046
     K00B19H  C2000 02 01.75257 05 58 57.76 +29 50 58.6                      046
     K00B19H  C2000 02 01.75324 05 58 57.96 +29 50 58.5                      046
     K00B19H  C2000 02 01.75402 05 58 58.21 +29 50 58.1          17.2 R      046
     K00B19H  C2000 02 01.93237 05 59 49.39 +29 49 40.0          16.7 R      118
     K00B19H  C2000 02 01.93770 05 59 50.95 +29 49 37.7                      118
     K00B19H  C2000 02 01.94122 05 59 51.97 +29 49 35.6                      118
     K00B19H  C2000 02 02.13058 06 00 52.77 +29 48 26.6          17.0 R      858
     K00B19H  C2000 02 02.13297 06 00 53.45 +29 48 25.5          17.0 R      858
     K00B19H  C2000 02 02.15347 06 00 58.06 +29 48 16.5          17.5 R      850
     K00B19H  C2000 02 02.17178 06 01 04.52 +29 48 09.9          17.1        704
     K00B19H  C2000 02 02.17639 06 01 04.48 +29 48 05.2          17.5 R      850
     K00B19H  C2000 02 02.18636 06 01 08.66 +29 48 03.5          18.9        704
     K00B19H  C2000 02 02.20039 06 01 12.63 +29 47 57.2          17.4        704
     K00B19H  C2000 02 02.20051 06 01 13.42 +29 47 56.6                      670
     K00B19H  C2000 02 02.21447 06 01 16.65 +29 47 50.0          17.1        704
     K00B19H  C2000 02 02.22458 06 01 20.44 +29 47 45.3                      670
     K00B19H  C2000 02 02.22857 06 01 20.68 +29 47 43.1          17.5        704
     K00B19H  C2000 02 02.28774 06 01 38.34 +29 47 14.3                      670
     K00B19H  C2000 02 02.29985 06 01 41.34 +29 47 07.8          17.3 V      651
     K00B19H  C2000 02 02.30309 06 01 42.08 +29 47 03.6                      651
     K00B19H  C2000 02 02.30873 06 01 43.91 +29 47 03.1          17.3 V      651
     K00B19H  C2000 02 02.43769 06 02 26.68 +29 47 00.4          17.1 R      422
     K00B19H  C2000 02 02.43869 06 02 27.02 +29 46 59.7          17.0 R      422
     K00B19H  C2000 02 02.43936 06 02 27.18 +29 46 59.4          17.1 R      422
     K00B19H  C2000 02 02.44065 06 02 27.57 +29 46 58.6          17.2 R      422
     K00B19H  C2000 02 02.94059 06 05 00.06 +29 41 44.9                      557
     K00B19H  C2000 02 02.94211 06 05 00.53 +29 41 43.8                      557
     K00B19H  C2000 02 02.94362 06 05 00.95 +29 41 43.0                      557
     K00B19H  C2000 02 03.08829 06 05 45.79 +29 41 34.9                      860
     K00B19H  C2000 02 03.09508 06 05 47.82 +29 41 31.2          17.3 V      860
     K00B19H  C2000 02 03.10397 06 05 54.13 +29 40 37.7          16.8 R      858
     K00B19H  C2000 02 03.10642 06 05 54.86 +29 40 36.6          16.7 R      858
     K00B19H  C2000 02 03.10936 06 05 55.71 +29 40 35.2          16.8 R      858
     K00B19H  C2000 02 03.18836 06 06 19.42 +29 39 58.3                      670
     K00B19H  C2000 02 03.22337 06 06 29.62 +29 39 40.1                      670
     K00B19H  C2000 02 03.31049 06 06 54.85 +29 38 51.5                      670

Observer details:
046 Klet.  Observers M. Tichy, Z. Moravec.  0.57-m f/5.2 reflector + CCD.
106 Crni Vrh.  Observer J. Skvarc.  0.36-m f/6.7 Schmidt-Cassegrain + CCD.
118 Modra.  Observers A. Galad, A. Pravda, L. Kornos, P. Koleny, S. Gajdos,
    J. Toth, D. Kalmancok.  0.6-m f/5.5 reflector + CCD.
422 Loomberah.  Observer G. J. Garradd.  0.45-m f/5.4 reflector + CCD.
557 Ondrejov.  Observers L. Sarounova, P. Kusnirak.  0.65-m f/3.6 reflector
    + CCD.
642 Oak Bay, Victoria.  Observer C. E. Spratt.  0.20-m f/3.7 Schmidt-Cassegrain
    + CCD.
651 Grasslands Observatory, Tucson.  Observer J. E. McGaha.  0.62-m f/5.1
    reflector + CCD.
670 Camarillo.  Observer J. E. Rogers.  0.30-m f/6.7 Helin Telescope + CCD.
681 Calgary.  Observer G. W. Billings.  0.36-m f/7 Schmidt-Cassegrain + CCD.
704 Lincoln Laboratory ETS, New Mexico.  Observers M. Blythe, F. Shelly,
    M. Bezpalko, M. Elowitz, R. Huber.  Measurers J. Stuart, H. Viggh,
    R. Sayer, J. B. Evans.  1.0-m f/2.15 reflector + CCD.
850 Cordell-Lorenz Observatory, Sewanee.  Observer D. T. Durig.  0.3-m f/5.75
    Schmidt-Cassegrain + CCD.
858 Tebbutt Observatory, Edgewood.  Observer F. B. Zoltowski.  0.3-m f/3.3
    Schmidt-Cassegrain + CCD.
860 Valinhos.  Observer P. R. Holvorcem.  0.20-m f/3.3 reflector + CCD.

Orbital elements:
2000 BH19
Epoch 2000 Jan. 17.0 TT = JDT 2451560.5                 Williams
M 355.55722              (2000.0)            P               Q
n   0.33941009     Peri.  134.55374     -0.56006497     -0.82843801
a   2.0354146      Node   349.50416     +0.75339117     -0.50720452
e   0.4578346      Incl.    1.32323     +0.34457071     -0.23755850
P   2.90           H   19.6           G   0.15
From 79 observations 2000 Jan. 29-Feb. 3.

Ephemeris:
2000 BH19                a,e,i = 2.04, 0.46, 1                   q = 1.1035
Date    TT    R. A. (2000) Decl.     Delta      r     Elong.  Phase     V
2000 01 27    05 31.46   +30 19.0    0.156    1.104   137.0    37.5    17.3
2000 02 01    05 55.14   +29 56.5    0.155    1.104   137.1    37.4    17.3
2000 02 06    06 21.21   +29 12.4    0.155    1.106   137.8    36.8    17.3
2000 02 11    06 48.65   +28 04.6    0.159    1.111   138.9    35.7    17.3
2000 02 16    07 16.31   +26 34.8    0.165    1.119   140.2    34.4    17.4
2000 02 21    07 43.07   +24 47.5    0.173    1.130   141.5    33.0    17.4
2000 02 26    08 08.10   +22 49.6    0.185    1.143   142.5    31.8    17.6
2000 03 02    08 31.00   +20 47.6    0.200    1.158   143.2    30.9    17.8
2000 03 07    08 51.67   +18 47.3    0.219    1.175   143.4    30.2    18.0
2000 03 12    09 10.26   +16 52.1    0.240    1.195   143.2    29.9    18.2
2000 03 17    09 26.99   +15 04.1    0.264    1.216   142.6    29.8    18.4
2000 03 22    09 42.11   +13 23.8    0.292    1.238   141.6    30.0    18.7
2000 03 27    09 55.86   +11 51.2    0.322    1.263   140.4    30.3    19.0
2000 04 01    10 08.49   +10 25.7    0.355    1.288   138.8    30.7    19.2
2000 04 06    10 20.24   +09 06.1    0.391    1.315   137.1    31.2    19.5
2000 04 11    10 31.30   +07 51.6    0.431    1.342   135.1    31.8    19.8
2000 04 16    10 41.82   +06 41.1    0.473    1.371   133.1    32.3    20.0

2000 04 26    11 01.58   +04 30.0    0.565    1.429   128.7    33.3    20.5
2000 05 06    11 20.20   +02 28.0    0.668    1.490   124.1    34.1    21.0
2000 05 16    11 38.16   +00 31.6    0.781    1.551   119.3    34.6    21.4
2000 05 26    11 55.67   -01 20.9    0.904    1.613   114.5    34.9    21.9
2000 06 05    12 12.92   -03 10.4    1.036    1.675   109.6    34.8    22.2

Gareth V. Williams           (C) Copyright 2000 MPC           M.P.E.C. 2000-C13

Read MPEC 2000-C12 Read MPEC 2000-C14


Our Web policy. Index to the CBAT/MPC/ICQ pages.


Valid HTML 4.01!